,,,PA_Meas_PMT16A,,PR_Meas_QMR101_102,,RH_Meas_QMH101,,SR_Meas_QMS101,,TA_Meas_QMH101,,GenWind,,GenWind,
date,time,status,PA,status,PR,status,RH,status,SR,status,TA,status,DirAvg,status,SpdAvg,
2011-10-02, 00:00:04,VALID,1009.799,VALID,0.0,VALID,104.0,VALID,0.0,VALID,24.121,VALID,76.0,VALID,0.018,
2011-10-02, 00:01:04,VALID,1009.797,VALID,0.0,VALID,104.0,VALID,0.0,VALID,24.142,VALID,75.0,VALID,0.11,
2011-10-02, 00:02:04,VALID,1009.776,VALID,0.0,VALID,104.0,VALID,0.0,VALID,24.142,VALID,75.0,VALID,0.249,
2011-10-02, 00:03:04,VALID,1009.774,VALID,0.0,VALID,104.0,VALID,0.0,VALID,24.123,VALID,75.0,VALID,0.23,
2011-10-02, 00:04:04,VALID,1009.754,VALID,0.0,VALID,104.0,VALID,0.0,VALID,24.164,VALID,75.0,VALID,0.237,
2011-10-02, 00:05:04,VALID,1009.758,VALID,0.0,VALID,104.0,VALID,0.0,VALID,24.142,VALID,75.0,VALID,0.265,
2011-10-02, 00:06:04,VALID,1009.752,VALID,0.0,VALID,104.0,VALID,0.0,VALID,24.144,VALID,75.0,VALID,0.205,
2011-10-02, 00:07:04,VALID,1009.731,VALID,0.0,VALID,104.0,VALID,0.0,VALID,24.103,VALID,75.0,VALID,0.134,
2011-10-02, 00:08:04,VALID,1009.727,VALID,0.0,VALID,104.0,VALID,0.0,VALID,24.084,VALID,75.0,VALID,0.18,
2011-10-02, 00:09:04,VALID,1009.695,VALID,0.0,VALID,104.0,VALID,0.0,VALID,24.084,VALID,75.0,VALID,0.161,
2011-10-02, 00:10:04,VALID,1009.692,VALID,0.0,VALID,104.0,VALID,0.0,VALID,24.084,VALID,75.0,VALID,0.24,
2011-10-02, 00:11:04,VALID,1009.638,VALID,0.0,VALID,104.0,VALID,0.0,VALID,24.064,VALID,75.0,VALID,0.303,
2011-10-02, 00:12:04,VALID,1009.631,VALID,0.0,VALID,104.0,VALID,0.0,VALID,24.064,VALID,75.0,VALID,0.233,
2011-10-02, 00:13:04,VALID,1009.623,VALID,0.0,VALID,104.0,VALID,0.0,VALID,24.084,VALID,75.0,VALID,0.481,
2011-10-02, 00:14:04,VALID,1009.613,VALID,0.0,VALID,104.0,VALID,0.0,VALID,24.084,VALID,74.0,VALID,0.415,
2011-10-02, 00:15:04,VALID,1009.622,VALID,0.0,VALID,104.0,VALID,0.0,VALID,24.123,VALID,74.0,VALID,0.29,
2011-10-02, 00:16:04,VALID,1009.624,VALID,0.0,VALID,104.0,VALID,0.0,VALID,24.123,VALID,74.0,VALID,0.271,
2011-10-02, 00:17:04,VALID,1009.602,VALID,0.0,VALID,104.0,VALID,0.0,VALID,24.142,VALID,74.0,VALID,0.395,
2011-10-02, 00:18:04,VALID,1009.615,VALID,0.0,VALID,104.0,VALID,0.0,VALID,24.142,VALID,74.0,VALID,0.392,
2011-10-02, 00:19:04,VALID,1009.607,VALID,0.0,VALID,104.0,VALID,0.0,VALID,24.183,VALID,74.0,VALID,0.443,
2011-10-02, 00:20:04,VALID,1009.608,VALID,0.0,VALID,104.0,VALID,0.0,VALID,24.162,VALID,42.0,VALID,0.587,
2011-10-02, 00:21:04,VALID,1009.595,VALID,0.0,VALID,104.0,VALID,0.0,VALID,24.181,VALID,42.0,VALID,0.481,
2011-10-02, 00:22:04,VALID,1009.591,VALID,0.0,VALID,104.0,VALID,0.0,VALID,24.162,VALID,38.0,VALID,0.489,
2011-10-02, 00:23:04,VALID,1009.599,VALID,0.0,VALID,104.0,VALID,0.0,VALID,24.162,VALID,34.0,VALID,0.504,
2011-10-02, 00:24:04,VALID,1009.586,VALID,0.0,VALID,104.0,VALID,0.0,VALID,24.162,VALID,34.0,VALID,0.362,
2011-10-02, 00:25:04,VALID,1009.581,VALID,0.0,VALID,104.0,VALID,0.0,VALID,24.142,VALID,33.0,VALID,0.512,
2011-10-02, 00:26:04,VALID,1009.562,VALID,0.0,VALID,104.0,VALID,0.0,VALID,24.162,VALID,21.0,VALID,0.571,
2011-10-02, 00:27:04,VALID,1009.517,VALID,0.0,VALID,104.0,VALID,0.0,VALID,24.162,VALID,15.0,VALID,0.432,
2011-10-02, 00:28:04,VALID,1009.531,VALID,0.0,VALID,104.0,VALID,0.0,VALID,24.181,VALID,14.0,VALID,0.266,
2011-10-02, 00:29:04,VALID,1009.479,VALID,0.0,VALID,104.0,VALID,0.0,VALID,24.164,VALID,14.0,VALID,0.189,
2011-10-02, 00:30:04,VALID,1009.466,VALID,0.0,VALID,104.0,VALID,0.0,VALID,24.162,VALID,14.0,VALID,0.371,
2011-10-02, 00:31:04,VALID,1009.444,VALID,0.0,VALID,104.0,VALID,0.0,VALID,24.164,VALID,14.0,VALID,0.205,
2011-10-02, 00:32:04,VALID,1009.434,VALID,0.0,VALID,104.0,VALID,0.0,VALID,24.123,VALID,14.0,VALID,0.125,
2011-10-02, 00:33:04,VALID,1009.412,VALID,0.0,VALID,104.0,VALID,0.0,VALID,24.103,VALID,14.0,VALID,0.091,
2011-10-02, 00:34:04,VALID,1009.402,VALID,0.0,VALID,104.0,VALID,0.0,VALID,24.103,VALID,14.0,VALID,0.203,
2011-10-02, 00:35:04,VALID,1009.37,VALID,0.0,VALID,104.0,VALID,0.0,VALID,24.103,VALID,14.0,VALID,0.331,
2011-10-02, 00:36:04,VALID,1009.323,VALID,0.0,VALID,104.0,VALID,0.0,VALID,24.103,VALID,14.0,VALID,0.509,
2011-10-02, 00:37:04,VALID,1009.278,VALID,0.0,VALID,104.0,VALID,0.0,VALID,24.103,VALID,348.0,VALID,0.627,
2011-10-02, 00:38:04,VALID,1009.279,VALID,0.0,VALID,104.0,VALID,0.0,VALID,24.103,VALID,348.0,VALID,0.462,
2011-10-02, 00:39:04,VALID,1009.231,VALID,0.0,VALID,104.0,VALID,0.0,VALID,24.123,VALID,341.0,VALID,0.507,
2011-10-02, 00:40:04,VALID,1009.231,VALID,0.0,VALID,104.0,VALID,0.0,VALID,24.142,VALID,314.0,VALID,0.196,
2011-10-02, 00:41:04,VALID,1009.192,VALID,0.0,VALID,104.0,VALID,0.0,VALID,24.162,VALID,314.0,VALID,0.195,
2011-10-02, 00:42:04,VALID,1009.174,VALID,0.0,VALID,104.0,VALID,0.112,VALID,24.181,VALID,314.0,VALID,0.057,
2011-10-02, 00:43:04,VALID,1009.159,VALID,0.0,VALID,104.0,VALID,0.0,VALID,24.181,VALID,314.0,VALID,0.001,
2011-10-02, 00:44:04,VALID,1009.164,VALID,0.0,VALID,104.0,VALID,0.0,VALID,24.162,VALID,314.0,VALID,0.266,
2011-10-02, 00:45:04,VALID,1009.126,VALID,0.0,VALID,104.0,VALID,0.0,VALID,24.181,VALID,314.0,VALID,0.162,
2011-10-02, 00:46:04,VALID,1009.092,VALID,0.0,VALID,104.0,VALID,0.0,VALID,24.201,VALID,314.0,VALID,0.024,
2011-10-02, 00:47:04,VALID,1009.058,VALID,0.0,VALID,104.0,VALID,0.0,VALID,24.201,VALID,314.0,VALID,0.004,
2011-10-02, 00:48:04,VALID,1009.054,VALID,0.0,VALID,104.0,VALID,0.0,VALID,24.201,VALID,314.0,VALID,0.22,
2011-10-02, 00:49:04,VALID,1009.02,VALID,0.0,VALID,104.0,VALID,0.0,VALID,24.201,VALID,314.0,VALID,0.012,
2011-10-02, 00:50:04,VALID,1009.004,VALID,0.0,VALID,104.0,VALID,0.0,VALID,24.22,VALID,314.0,VALID,0.0,
2011-10-02, 00:51:04,VALID,1008.954,VALID,0.0,VALID,104.0,VALID,0.0,VALID,24.201,VALID,314.0,VALID,0.086,
2011-10-02, 00:52:04,VALID,1008.957,VALID,0.0,VALID,104.0,VALID,0.0,VALID,24.22,VALID,314.0,VALID,0.0,
2011-10-02, 00:53:04,VALID,1008.925,VALID,0.0,VALID,104.0,VALID,0.0,VALID,24.22,VALID,314.0,VALID,0.0,
2011-10-02, 00:54:04,VALID,1008.894,VALID,0.0,VALID,104.0,VALID,0.0,VALID,24.24,VALID,314.0,VALID,0.0,
2011-10-02, 00:55:04,VALID,1008.865,VALID,0.0,VALID,104.0,VALID,0.0,VALID,24.259,VALID,314.0,VALID,0.0,
2011-10-02, 00:56:04,VALID,1008.879,VALID,0.0,VALID,104.0,VALID,0.0,VALID,24.238,VALID,314.0,VALID,0.0,
2011-10-02, 00:57:04,VALID,1008.84,VALID,0.0,VALID,104.0,VALID,0.0,VALID,24.279,VALID,314.0,VALID,0.0,
2011-10-02, 00:58:04,VALID,1008.879,VALID,0.0,VALID,104.0,VALID,0.0,VALID,24.259,VALID,314.0,VALID,0.0,
2011-10-02, 00:59:04,VALID,1008.885,VALID,0.0,VALID,104.0,VALID,0.0,VALID,24.259,VALID,314.0,VALID,0.0,
2011-10-02, 01:00:04,VALID,1008.856,VALID,0.0,VALID,104.0,VALID,0.0,VALID,24.24,VALID,314.0,VALID,0.0,
2011-10-02, 01:01:04,VALID,1008.864,VALID,0.0,VALID,104.0,VALID,0.0,VALID,24.24,VALID,314.0,VALID,0.0,
2011-10-02, 01:02:04,VALID,1008.874,VALID,0.0,VALID,104.0,VALID,0.0,VALID,24.24,VALID,314.0,VALID,0.003,
2011-10-02, 01:03:04,VALID,1008.887,VALID,0.0,VALID,104.0,VALID,0.0,VALID,24.24,VALID,314.0,VALID,0.254,
2011-10-02, 01:04:04,VALID,1008.921,VALID,0.0,VALID,104.0,VALID,0.0,VALID,24.259,VALID,314.0,VALID,0.355,
2011-10-02, 01:05:04,VALID,1008.915,VALID,0.0,VALID,104.0,VALID,0.0,VALID,24.259,VALID,314.0,VALID,0.415,
2011-10-02, 01:06:04,VALID,1008.909,VALID,0.0,VALID,104.0,VALID,0.0,VALID,24.218,VALID,314.0,VALID,0.307,
2011-10-02, 01:07:04,VALID,1008.905,VALID,0.0,VALID,104.0,VALID,0.0,VALID,24.199,VALID,314.0,VALID,0.243,
2011-10-02, 01:08:04,VALID,1008.909,VALID,0.0,VALID,104.0,VALID,0.0,VALID,24.22,VALID,314.0,VALID,0.318,
2011-10-02, 01:09:04,VALID,1008.885,VALID,0.0,VALID,104.0,VALID,0.0,VALID,24.259,VALID,314.0,VALID,0.175,
2011-10-02, 01:10:04,VALID,1008.874,VALID,0.0,VALID,104.0,VALID,0.0,VALID,24.259,VALID,314.0,VALID,0.155,
2011-10-02, 01:11:04,VALID,1008.863,VALID,0.0,VALID,104.0,VALID,0.0,VALID,24.24,VALID,314.0,VALID,0.0,
2011-10-02, 01:12:04,VALID,1008.86,VALID,0.0,VALID,104.0,VALID,0.0,VALID,24.201,VALID,314.0,VALID,0.108,
2011-10-02, 01:13:04,VALID,1008.851,VALID,0.0,VALID,104.0,VALID,0.0,VALID,24.14,VALID,314.0,VALID,0.339,
2011-10-02, 01:14:04,VALID,1008.881,VALID,0.0,VALID,104.0,VALID,0.0,VALID,24.142,VALID,314.0,VALID,0.419,
2011-10-02, 01:15:04,VALID,1008.875,VALID,0.0,VALID,104.0,VALID,0.0,VALID,24.123,VALID,314.0,VALID,0.395,
2011-10-02, 01:16:04,VALID,1008.884,VALID,0.0,VALID,104.0,VALID,0.0,VALID,24.103,VALID,314.0,VALID,0.339,
2011-10-02, 01:17:04,VALID,1008.888,VALID,0.0,VALID,104.0,VALID,0.0,VALID,24.084,VALID,314.0,VALID,0.254,
2011-10-02, 01:18:04,VALID,1008.874,VALID,0.0,VALID,104.0,VALID,0.0,VALID,24.043,VALID,314.0,VALID,0.284,
2011-10-02, 01:19:04,VALID,1008.9,VALID,0.0,VALID,104.0,VALID,0.0,VALID,24.064,VALID,314.0,VALID,0.134,
2011-10-02, 01:20:04,VALID,1008.896,VALID,0.0,VALID,104.0,VALID,0.0,VALID,24.045,VALID,314.0,VALID,0.188,
2011-10-02, 01:21:04,VALID,1008.901,VALID,0.0,VALID,104.0,VALID,0.0,VALID,24.025,VALID,314.0,VALID,0.181,
2011-10-02, 01:22:04,VALID,1008.957,VALID,0.0,VALID,104.0,VALID,0.112,VALID,24.025,VALID,314.0,VALID,0.257,
2011-10-02, 01:23:04,VALID,1008.932,VALID,0.0,VALID,104.0,VALID,0.0,VALID,24.045,VALID,314.0,VALID,0.214,
2011-10-02, 01:24:04,VALID,1008.908,VALID,0.0,VALID,104.0,VALID,0.0,VALID,24.045,VALID,314.0,VALID,0.236,
2011-10-02, 01:25:04,VALID,1008.932,VALID,0.0,VALID,104.0,VALID,0.0,VALID,24.045,VALID,314.0,VALID,0.219,
2011-10-02, 01:26:04,VALID,1008.955,VALID,0.0,VALID,104.0,VALID,0.0,VALID,24.023,VALID,314.0,VALID,0.42,
2011-10-02, 01:27:04,VALID,1008.971,VALID,0.0,VALID,104.0,VALID,0.0,VALID,24.064,VALID,314.0,VALID,0.263,
2011-10-02, 01:28:04,VALID,1008.997,VALID,0.0,VALID,104.0,VALID,0.0,VALID,24.043,VALID,314.0,VALID,0.329,
2011-10-02, 01:29:04,VALID,1009.01,VALID,0.0,VALID,104.0,VALID,0.112,VALID,24.045,VALID,314.0,VALID,0.31,
2011-10-02, 01:30:04,VALID,1009.055,VALID,0.0,VALID,104.0,VALID,0.0,VALID,24.023,VALID,315.0,VALID,0.165,
2011-10-02, 01:31:04,VALID,1009.037,VALID,0.0,VALID,104.0,VALID,0.0,VALID,24.006,VALID,316.0,VALID,0.047,
2011-10-02, 01:32:04,VALID,1009.058,VALID,0.0,VALID,104.0,VALID,0.0,VALID,24.006,VALID,316.0,VALID,0.0,
2011-10-02, 01:33:04,VALID,1009.056,VALID,0.0,VALID,104.0,VALID,0.0,VALID,23.986,VALID,316.0,VALID,0.111,
2011-10-02, 01:34:04,VALID,1009.082,VALID,0.0,VALID,104.0,VALID,0.112,VALID,23.984,VALID,316.0,VALID,0.404,
2011-10-02, 01:35:04,VALID,1009.108,VALID,0.0,VALID,104.0,VALID,0.112,VALID,24.006,VALID,317.0,VALID,0.479,
2011-10-02, 01:36:04,VALID,1009.067,VALID,0.0,VALID,104.0,VALID,0.112,VALID,23.984,VALID,321.0,VALID,0.086,
2011-10-02, 01:37:04,VALID,1009.091,VALID,0.0,VALID,104.0,VALID,0.112,VALID,24.006,VALID,321.0,VALID,0.213,
2011-10-02, 01:38:04,VALID,1009.117,VALID,0.0,VALID,104.0,VALID,0.0,VALID,24.004,VALID,321.0,VALID,0.251,
2011-10-02, 01:39:04,VALID,1009.1,VALID,0.0,VALID,104.0,VALID,0.0,VALID,24.025,VALID,321.0,VALID,0.202,
2011-10-02, 01:40:04,VALID,1009.109,VALID,0.0,VALID,104.0,VALID,0.112,VALID,24.006,VALID,321.0,VALID,0.275,
2011-10-02, 01:41:04,VALID,1009.105,VALID,0.0,VALID,104.0,VALID,0.112,VALID,24.006,VALID,321.0,VALID,0.295,
2011-10-02, 01:42:04,VALID,1009.108,VALID,0.0,VALID,104.0,VALID,0.112,VALID,23.984,VALID,321.0,VALID,0.415,
2011-10-02, 01:43:04,VALID,1009.094,VALID,0.0,VALID,104.0,VALID,0.0,VALID,24.006,VALID,321.0,VALID,0.45,
2011-10-02, 01:44:04,VALID,1009.096,VALID,0.0,VALID,104.0,VALID,0.0,VALID,24.025,VALID,321.0,VALID,0.391,
2011-10-02, 01:45:04,VALID,1009.109,VALID,0.0,VALID,104.0,VALID,0.0,VALID,24.004,VALID,321.0,VALID,0.427,
2011-10-02, 01:46:04,VALID,1009.095,VALID,0.0,VALID,104.0,VALID,0.0,VALID,24.045,VALID,321.0,VALID,0.452,
2011-10-02, 01:47:04,VALID,1009.117,VALID,0.0,VALID,104.0,VALID,0.0,VALID,24.025,VALID,321.0,VALID,0.518,
2011-10-02, 01:48:04,VALID,1009.095,VALID,0.0,VALID,104.0,VALID,0.0,VALID,24.025,VALID,321.0,VALID,0.425,
2011-10-02, 01:49:04,VALID,1009.094,VALID,0.0,VALID,104.0,VALID,0.112,VALID,24.025,VALID,321.0,VALID,0.402,
2011-10-02, 01:50:04,VALID,1009.033,VALID,0.0,VALID,104.0,VALID,0.0,VALID,23.986,VALID,321.0,VALID,0.286,
2011-10-02, 01:51:04,VALID,1009.026,VALID,0.0,VALID,104.0,VALID,0.0,VALID,23.986,VALID,321.0,VALID,0.304,
2011-10-02, 01:52:04,VALID,1009.035,VALID,0.0,VALID,104.0,VALID,0.0,VALID,23.967,VALID,321.0,VALID,0.364,
2011-10-02, 01:53:04,VALID,1008.983,VALID,0.0,VALID,104.0,VALID,0.0,VALID,23.947,VALID,321.0,VALID,0.261,
2011-10-02, 01:54:04,VALID,1008.99,VALID,0.0,VALID,104.0,VALID,0.0,VALID,23.928,VALID,321.0,VALID,0.229,
2011-10-02, 01:55:04,VALID,1008.967,VALID,0.0,VALID,104.0,VALID,0.0,VALID,23.908,VALID,321.0,VALID,0.173,
2011-10-02, 01:56:04,VALID,1008.974,VALID,0.0,VALID,104.0,VALID,0.0,VALID,23.869,VALID,321.0,VALID,0.186,
2011-10-02, 01:57:04,VALID,1008.997,VALID,0.0,VALID,104.0,VALID,0.0,VALID,23.889,VALID,321.0,VALID,0.151,
2011-10-02, 01:58:04,VALID,1009.014,VALID,0.0,VALID,104.0,VALID,0.0,VALID,23.869,VALID,321.0,VALID,0.002,
2011-10-02, 01:59:04,VALID,1009.031,VALID,0.0,VALID,104.0,VALID,0.0,VALID,23.85,VALID,321.0,VALID,0.0,
2011-10-02, 02:00:04,VALID,1009.073,VALID,0.0,VALID,104.0,VALID,0.0,VALID,23.829,VALID,321.0,VALID,0.0,
2011-10-02, 02:01:04,VALID,1009.102,VALID,0.0,VALID,104.0,VALID,0.0,VALID,23.83,VALID,321.0,VALID,0.0,
2011-10-02, 02:02:04,VALID,1009.16,VALID,0.0,VALID,104.0,VALID,0.0,VALID,23.852,VALID,321.0,VALID,0.0,
2011-10-02, 02:03:04,VALID,1009.174,VALID,0.0,VALID,104.0,VALID,0.0,VALID,23.79,VALID,321.0,VALID,0.0,
2011-10-02, 02:04:04,VALID,1009.151,VALID,0.0,VALID,104.0,VALID,0.0,VALID,23.791,VALID,321.0,VALID,0.0,
2011-10-02, 02:05:04,VALID,1009.201,VALID,0.0,VALID,104.0,VALID,0.0,VALID,23.791,VALID,321.0,VALID,0.0,
2011-10-02, 02:06:04,VALID,1009.208,VALID,0.0,VALID,104.0,VALID,0.112,VALID,23.772,VALID,321.0,VALID,0.0,
2011-10-02, 02:07:04,VALID,1009.202,VALID,0.0,VALID,104.0,VALID,0.0,VALID,23.772,VALID,321.0,VALID,0.0,
2011-10-02, 02:08:04,VALID,1009.185,VALID,0.0,VALID,104.0,VALID,0.0,VALID,23.751,VALID,321.0,VALID,0.101,
2011-10-02, 02:09:04,VALID,1009.211,VALID,0.0,VALID,104.0,VALID,0.0,VALID,23.77,VALID,321.0,VALID,0.332,
2011-10-02, 02:10:04,VALID,1009.192,VALID,0.0,VALID,104.0,VALID,0.0,VALID,23.811,VALID,322.0,VALID,0.502,
2011-10-02, 02:11:04,VALID,1009.197,VALID,0.0,VALID,104.0,VALID,0.0,VALID,23.83,VALID,323.0,VALID,0.435,
2011-10-02, 02:12:04,VALID,1009.183,VALID,0.0,VALID,104.0,VALID,0.0,VALID,23.869,VALID,323.0,VALID,0.374,
2011-10-02, 02:13:04,VALID,1009.189,VALID,0.0,VALID,104.0,VALID,0.112,VALID,23.85,VALID,323.0,VALID,0.223,
2011-10-02, 02:14:04,VALID,1009.214,VALID,0.0,VALID,104.0,VALID,0.0,VALID,23.829,VALID,323.0,VALID,0.161,
2011-10-02, 02:15:04,VALID,1009.18,VALID,0.0,VALID,104.0,VALID,0.0,VALID,23.829,VALID,323.0,VALID,0.41,
2011-10-02, 02:16:04,VALID,1009.174,VALID,0.0,VALID,104.0,VALID,0.0,VALID,23.848,VALID,323.0,VALID,0.434,
2011-10-02, 02:17:04,VALID,1009.161,VALID,0.0,VALID,104.0,VALID,0.0,VALID,23.889,VALID,323.0,VALID,0.243,
2011-10-02, 02:18:04,VALID,1009.144,VALID,0.0,VALID,104.0,VALID,0.0,VALID,23.889,VALID,323.0,VALID,0.201,
2011-10-02, 02:19:04,VALID,1009.115,VALID,0.0,VALID,104.0,VALID,0.0,VALID,23.908,VALID,323.0,VALID,0.224,
2011-10-02, 02:20:04,VALID,1009.088,VALID,0.0,VALID,104.0,VALID,0.0,VALID,23.928,VALID,323.0,VALID,0.0,
2011-10-02, 02:21:04,VALID,1009.052,VALID,0.0,VALID,104.0,VALID,0.0,VALID,23.928,VALID,323.0,VALID,0.0,
2011-10-02, 02:22:04,VALID,1008.985,VALID,0.0,VALID,104.0,VALID,0.0,VALID,23.928,VALID,323.0,VALID,0.0,
2011-10-02, 02:23:04,VALID,1008.985,VALID,0.0,VALID,104.0,VALID,0.0,VALID,23.928,VALID,323.0,VALID,0.0,
2011-10-02, 02:24:04,VALID,1008.965,VALID,0.0,VALID,104.0,VALID,0.0,VALID,23.947,VALID,323.0,VALID,0.0,
2011-10-02, 02:25:04,VALID,1008.976,VALID,0.0,VALID,104.0,VALID,0.0,VALID,23.946,VALID,323.0,VALID,0.338,
2011-10-02, 02:26:04,VALID,1008.983,VALID,0.0,VALID,104.0,VALID,0.0,VALID,23.946,VALID,323.0,VALID,0.355,
2011-10-02, 02:27:04,VALID,1008.978,VALID,0.0,VALID,104.0,VALID,0.112,VALID,23.967,VALID,323.0,VALID,0.359,
2011-10-02, 02:28:04,VALID,1008.999,VALID,0.0,VALID,104.0,VALID,0.0,VALID,23.926,VALID,323.0,VALID,0.342,
2011-10-02, 02:29:04,VALID,1008.99,VALID,0.0,VALID,104.0,VALID,0.0,VALID,23.926,VALID,323.0,VALID,0.237,
2011-10-02, 02:30:04,VALID,1009.015,VALID,0.0,VALID,104.0,VALID,0.112,VALID,23.947,VALID,323.0,VALID,0.248,
2011-10-02, 02:31:04,VALID,1008.985,VALID,0.0,VALID,104.0,VALID,0.0,VALID,23.947,VALID,323.0,VALID,0.11,
2011-10-02, 02:32:04,VALID,1008.994,VALID,0.0,VALID,104.0,VALID,0.0,VALID,23.928,VALID,323.0,VALID,0.384,
2011-10-02, 02:33:04,VALID,1008.981,VALID,0.0,VALID,104.0,VALID,0.0,VALID,23.908,VALID,323.0,VALID,0.404,
2011-10-02, 02:34:04,VALID,1009.004,VALID,0.0,VALID,104.0,VALID,0.0,VALID,23.908,VALID,323.0,VALID,0.526,
2011-10-02, 02:35:04,VALID,1009.002,VALID,0.0,VALID,104.0,VALID,0.0,VALID,23.889,VALID,323.0,VALID,0.607,
2011-10-02, 02:36:04,VALID,1009.008,VALID,0.0,VALID,104.0,VALID,0.0,VALID,23.887,VALID,323.0,VALID,0.517,
2011-10-02, 02:37:04,VALID,1009.027,VALID,0.0,VALID,104.0,VALID,0.0,VALID,23.908,VALID,323.0,VALID,0.648,
2011-10-02, 02:38:04,VALID,1009.016,VALID,0.0,VALID,104.0,VALID,0.0,VALID,23.887,VALID,323.0,VALID,0.502,
2011-10-02, 02:39:04,VALID,1009.038,VALID,0.0,VALID,104.0,VALID,0.0,VALID,23.889,VALID,323.0,VALID,0.334,
2011-10-02, 02:40:04,VALID,1009.039,VALID,0.0,VALID,104.0,VALID,0.0,VALID,23.868,VALID,323.0,VALID,0.375,
2011-10-02, 02:41:04,VALID,1009.054,VALID,0.0,VALID,104.0,VALID,0.0,VALID,23.869,VALID,323.0,VALID,0.276,
2011-10-02, 02:42:04,VALID,1009.039,VALID,0.0,VALID,104.0,VALID,0.0,VALID,23.869,VALID,322.0,VALID,0.203,
2011-10-02, 02:43:04,VALID,1009.046,VALID,0.0,VALID,104.0,VALID,0.0,VALID,23.869,VALID,322.0,VALID,0.198,
2011-10-02, 02:44:04,VALID,1009.032,VALID,0.0,VALID,104.0,VALID,0.0,VALID,23.869,VALID,322.0,VALID,0.171,
2011-10-02, 02:45:04,VALID,1009.017,VALID,0.0,VALID,104.0,VALID,0.0,VALID,23.889,VALID,322.0,VALID,0.412,
2011-10-02, 02:46:04,VALID,1008.999,VALID,0.0,VALID,104.0,VALID,0.0,VALID,23.869,VALID,322.0,VALID,0.274,
2011-10-02, 02:47:04,VALID,1008.975,VALID,0.0,VALID,104.0,VALID,0.0,VALID,23.868,VALID,322.0,VALID,0.633,
2011-10-02, 02:48:04,VALID,1008.98,VALID,0.0,VALID,104.0,VALID,0.0,VALID,23.889,VALID,322.0,VALID,0.665,
2011-10-02, 02:49:04,VALID,1009.0,VALID,0.0,VALID,104.0,VALID,0.0,VALID,23.889,VALID,322.0,VALID,0.281,
2011-10-02, 02:50:04,VALID,1009.035,VALID,0.0,VALID,104.0,VALID,0.0,VALID,23.889,VALID,322.0,VALID,0.533,
2011-10-02, 02:51:04,VALID,1009.023,VALID,0.0,VALID,104.0,VALID,0.0,VALID,23.869,VALID,322.0,VALID,0.215,
2011-10-02, 02:52:04,VALID,1009.057,VALID,0.0,VALID,104.0,VALID,0.0,VALID,23.889,VALID,322.0,VALID,0.114,
2011-10-02, 02:53:04,VALID,1009.047,VALID,0.0,VALID,104.0,VALID,0.0,VALID,23.868,VALID,322.0,VALID,0.28,
2011-10-02, 02:54:04,VALID,1009.067,VALID,0.0,VALID,104.0,VALID,0.0,VALID,23.887,VALID,322.0,VALID,0.0,
2011-10-02, 02:55:04,VALID,1009.069,VALID,0.0,VALID,104.0,VALID,0.0,VALID,23.908,VALID,322.0,VALID,0.0,
2011-10-02, 02:56:04,VALID,1009.067,VALID,0.0,VALID,104.0,VALID,0.0,VALID,23.908,VALID,322.0,VALID,0.0,
2011-10-02, 02:57:04,VALID,1009.074,VALID,0.0,VALID,104.0,VALID,0.0,VALID,23.928,VALID,322.0,VALID,0.0,
2011-10-02, 02:58:04,VALID,1009.069,VALID,0.0,VALID,104.0,VALID,0.0,VALID,23.908,VALID,322.0,VALID,0.0,
2011-10-02, 02:59:04,VALID,1009.068,VALID,0.0,VALID,104.0,VALID,0.0,VALID,23.908,VALID,322.0,VALID,0.0,
2011-10-02, 03:00:04,VALID,1009.098,VALID,0.0,VALID,104.0,VALID,0.0,VALID,23.908,VALID,322.0,VALID,0.049,
2011-10-02, 03:01:04,VALID,1009.1,VALID,0.0,VALID,104.0,VALID,0.0,VALID,23.908,VALID,322.0,VALID,0.0,
2011-10-02, 03:02:04,VALID,1009.077,VALID,0.0,VALID,104.0,VALID,0.0,VALID,23.908,VALID,322.0,VALID,0.0,
2011-10-02, 03:03:04,VALID,1009.065,VALID,0.0,VALID,104.0,VALID,0.0,VALID,23.908,VALID,322.0,VALID,0.0,
2011-10-02, 03:04:04,VALID,1009.078,VALID,0.0,VALID,104.0,VALID,0.0,VALID,23.908,VALID,322.0,VALID,0.0,
2011-10-02, 03:05:04,VALID,1009.11,VALID,0.0,VALID,104.0,VALID,0.0,VALID,23.928,VALID,322.0,VALID,0.0,
2011-10-02, 03:06:04,VALID,1009.128,VALID,0.0,VALID,104.0,VALID,0.0,VALID,23.947,VALID,322.0,VALID,0.0,
2011-10-02, 03:07:04,VALID,1009.141,VALID,0.0,VALID,104.0,VALID,0.0,VALID,23.928,VALID,322.0,VALID,0.361,
2011-10-02, 03:08:04,VALID,1009.157,VALID,0.0,VALID,104.0,VALID,0.0,VALID,23.928,VALID,322.0,VALID,0.192,
2011-10-02, 03:09:04,VALID,1009.163,VALID,0.0,VALID,104.0,VALID,0.0,VALID,23.908,VALID,322.0,VALID,0.0,
2011-10-02, 03:10:04,VALID,1009.176,VALID,0.0,VALID,104.0,VALID,0.0,VALID,23.908,VALID,322.0,VALID,0.0,
2011-10-02, 03:11:04,VALID,1009.148,VALID,0.0,VALID,104.0,VALID,0.0,VALID,23.887,VALID,322.0,VALID,0.0,
2011-10-02, 03:12:04,VALID,1009.157,VALID,0.0,VALID,104.0,VALID,0.0,VALID,23.868,VALID,322.0,VALID,0.0,
2011-10-02, 03:13:04,VALID,1009.14,VALID,0.0,VALID,104.0,VALID,0.0,VALID,23.889,VALID,322.0,VALID,0.0,
2011-10-02, 03:14:04,VALID,1009.138,VALID,0.0,VALID,104.0,VALID,0.0,VALID,23.889,VALID,322.0,VALID,0.0,
2011-10-02, 03:15:04,VALID,1009.155,VALID,0.0,VALID,104.0,VALID,0.112,VALID,23.868,VALID,322.0,VALID,0.0,
2011-10-02, 03:16:04,VALID,1009.125,VALID,0.0,VALID,104.0,VALID,0.0,VALID,23.869,VALID,322.0,VALID,0.0,
2011-10-02, 03:17:04,VALID,1009.127,VALID,0.0,VALID,104.0,VALID,0.0,VALID,23.85,VALID,322.0,VALID,0.0,
2011-10-02, 03:18:04,VALID,1009.092,VALID,0.0,VALID,104.0,VALID,0.0,VALID,23.869,VALID,322.0,VALID,0.0,
2011-10-02, 03:19:04,VALID,1009.094,VALID,0.0,VALID,104.0,VALID,0.0,VALID,23.83,VALID,322.0,VALID,0.0,
2011-10-02, 03:20:04,VALID,1009.116,VALID,0.0,VALID,104.0,VALID,0.112,VALID,23.85,VALID,322.0,VALID,0.0,
2011-10-02, 03:21:04,VALID,1009.103,VALID,0.0,VALID,104.0,VALID,0.0,VALID,23.83,VALID,322.0,VALID,0.0,
2011-10-02, 03:22:04,VALID,1009.121,VALID,0.0,VALID,104.0,VALID,0.0,VALID,23.83,VALID,322.0,VALID,0.0,
2011-10-02, 03:23:04,VALID,1009.118,VALID,0.0,VALID,104.0,VALID,0.0,VALID,23.79,VALID,322.0,VALID,0.001,
2011-10-02, 03:24:04,VALID,1009.177,VALID,0.0,VALID,104.0,VALID,0.0,VALID,23.791,VALID,322.0,VALID,0.194,
2011-10-02, 03:25:04,VALID,1009.159,VALID,0.0,VALID,104.0,VALID,0.0,VALID,23.772,VALID,322.0,VALID,0.0,
2011-10-02, 03:26:04,VALID,1009.153,VALID,0.0,VALID,104.0,VALID,0.0,VALID,23.752,VALID,322.0,VALID,0.0,
2011-10-02, 03:27:04,VALID,1009.151,VALID,0.0,VALID,104.0,VALID,0.0,VALID,23.752,VALID,322.0,VALID,0.0,
2011-10-02, 03:28:04,VALID,1009.103,VALID,0.0,VALID,104.0,VALID,0.0,VALID,23.754,VALID,322.0,VALID,0.0,
2011-10-02, 03:29:04,VALID,1009.101,VALID,0.0,VALID,104.0,VALID,0.0,VALID,23.733,VALID,322.0,VALID,0.0,
2011-10-02, 03:30:04,VALID,1009.09,VALID,0.0,VALID,104.0,VALID,0.0,VALID,23.752,VALID,322.0,VALID,0.0,
2011-10-02, 03:31:04,VALID,1009.088,VALID,0.0,VALID,104.0,VALID,0.0,VALID,23.713,VALID,322.0,VALID,0.0,
2011-10-02, 03:32:04,VALID,1009.065,VALID,0.0,VALID,104.0,VALID,0.0,VALID,23.694,VALID,322.0,VALID,0.0,
2011-10-02, 03:33:04,VALID,1009.081,VALID,0.0,VALID,104.0,VALID,0.0,VALID,23.675,VALID,322.0,VALID,0.136,
2011-10-02, 03:34:04,VALID,1009.093,VALID,0.0,VALID,104.0,VALID,0.112,VALID,23.655,VALID,322.0,VALID,0.338,
2011-10-02, 03:35:04,VALID,1009.11,VALID,0.0,VALID,104.0,VALID,0.0,VALID,23.636,VALID,322.0,VALID,0.206,
2011-10-02, 03:36:04,VALID,1009.129,VALID,0.0,VALID,104.0,VALID,0.0,VALID,23.636,VALID,322.0,VALID,0.46,
2011-10-02, 03:37:04,VALID,1009.135,VALID,0.0,VALID,104.0,VALID,0.0,VALID,23.655,VALID,322.0,VALID,0.282,
2011-10-02, 03:38:04,VALID,1009.143,VALID,0.0,VALID,104.0,VALID,0.0,VALID,23.636,VALID,322.0,VALID,0.159,
2011-10-02, 03:39:04,VALID,1009.137,VALID,0.0,VALID,104.0,VALID,0.0,VALID,23.655,VALID,322.0,VALID,0.448,
2011-10-02, 03:40:04,VALID,1009.136,VALID,0.0,VALID,104.0,VALID,0.0,VALID,23.636,VALID,322.0,VALID,0.42,
2011-10-02, 03:41:04,VALID,1009.134,VALID,0.0,VALID,104.0,VALID,0.0,VALID,23.636,VALID,322.0,VALID,0.308,
2011-10-02, 03:42:04,VALID,1009.124,VALID,0.0,VALID,104.0,VALID,0.0,VALID,23.636,VALID,322.0,VALID,0.413,
2011-10-02, 03:43:04,VALID,1009.111,VALID,0.0,VALID,104.0,VALID,0.0,VALID,23.636,VALID,322.0,VALID,0.343,